Regional Weather Roundup
Issued by NWS

Home | Current Version | Previous Version | Graphics & Text | Print | Product List | Glossary On
Versions: 1 2 3 4 5 6 7 8 9 10 11 12 13 14 15 16 17 18 19 20 21 22 23 24 25 26 27 28 29 30 31 32 33 34 35 36 37 38 39 40 41 42 43 44 45 46 47 48 49 50
000
ASUS43 KIND 020559
RWRIN

WEATHER ROUNDUP FOR INDIANA
NATIONAL WEATHER SERVICE INDIANAPOLIS IN
100 AM EST MON MAR 02 2015

NOTE: "FAIR" INDICATES FEW OR NO CLOUDS BELOW 12,000 FEET WITH NO
SIGNIFICANT WEATHER AND/OR OBSTRUCTIONS TO VISIBILITY.

* - STATION DOES NOT REPORT WEATHER SUCH AS PRECIPITATION OR FOG.

+ - STATION NOT QUALITY CONTROLLED BY THE NATIONAL WEATHER SERVICE.
    USE DATA WITH CAUTION...ESPECIALLY DEWPOINT AND RELATIVE
    HUMIDITY OBSERVATIONS.

INZ001>003-010>013-019-020-020700-
NORTHWEST INDIANA

CITY           SKY/WX    TMP DP  RH WIND       PRES   REMARKS
VALPARAISO     NOT AVBL

$$

LMZ046-743>745-020700-
SOUTHERN LAKE MICHIGAN

STATION/POSITION TIME  TEMP WIND        PRES
                       AIR  DIR/SP/G
                 (UTC) (F)  (DEG/KT/KT) (MB)
MICHIGAN CITY    0500   22  240/ 17/ 20   N/A

$$

INZ004-005-014>016-021>024-020700-
NORTH CENTRAL INDIANA

CITY           SKY/WX    TMP DP  RH WIND       PRES   REMARKS
GOSHEN         PTCLDY    15  10  80 W12       30.31S WCI   2
6HR MIN TEMP:  15; 6HR MAX TEMP:  20;

SOUTH BEND     PTCLDY    14  10  84 W7        30.33R WCI   4
6HR MIN TEMP:  14; 6HR MAX TEMP:  24;


$$

INZ006>009-017-018-025>027-020700-
NORTHEAST INDIANA

CITY           SKY/WX    TMP DP  RH WIND       PRES   REMARKS
ANGOLA *+      CLOUDY    19  16  86 W8        30.27S WCI   9
FORT WAYNE     PTCLDY    15  11  83 W10       30.33R WCI   2
6HR MIN TEMP:  15; 6HR MAX TEMP:  22; 6HR PCP: TRACE;


$$

INZ028-029-035-036-043>045-051>053-020700-
WEST CENTRAL INDIANA

CITY           SKY/WX    TMP DP  RH WIND       PRES   REMARKS
GREENCASTLE +  MOCLDY    23  18  80 W6        30.41R WCI  16
LAFAYETTE      MOCLDY    17  14  88 W7        30.40S WCI   8
6HR MIN TEMP:  15; 6HR MAX TEMP:  22;

TERRE HAUTE    MOCLDY    23  17  78 NW9       30.44R WCI  13
6HR MIN TEMP:  23; 6HR MAX TEMP:  27;


$$

INZ030>032-037>040-046>048-054>057-064-065-020700-
CENTRAL INDIANA

CITY           SKY/WX    TMP DP  RH WIND       PRES   REMARKS
GREENWOOD *+   CLOUDY    23  18  80 W5        30.40R WCI  17
INDIANAPOLIS   CLOUDY    22  16  78 W9        30.39R WCI  12
6HR MIN TEMP:  22; 6HR MAX TEMP:  28;

-EAGLE CREEK   PTCLDY    21  17  84 NW12      30.38R WCI   9
6HR MIN TEMP:  21; 6HR MAX TEMP:  26;

KOKOMO *+      PTCLDY    16  10  79 W12       30.36S WCI   3
6HR MIN TEMP:  16; 6HR MAX TEMP:  25; 6HR PCP:  0.01;

MT COMFORT *+  PTCLDY    23  12  63 W10       30.38S WCI  12
SHELBYVILLE    CLOUDY    25  18  74 NW9       30.38R WCI  15
6HR MIN TEMP:  25; 6HR MAX TEMP:  33;


$$

INZ033-034-041-042-049-050-058-059-020700-
EAST CENTRAL INDIANA

CITY           SKY/WX    TMP DP  RH WIND       PRES   REMARKS
MUNCIE         PTCLDY    19  16  88 W10       30.35S WCI   7
6HR MIN TEMP:  19; 6HR MAX TEMP:  26;


$$

INZ060-061-067>069-081>083-085>088-020700-
SOUTHWEST INDIANA

CITY           SKY/WX    TMP DP  RH WIND       PRES   REMARKS
EVANSVILLE     PTCLDY    30  23  75 N12       30.45R WCI  20
6HR MIN TEMP:  30; 6HR MAX TEMP:  34;

HUNTINGBURG *+ PTCLDY    28  21  74 N14       30.44R WCI  17
6HR MIN TEMP:  28; 6HR MAX TEMP:  34;


$$

INZ062-063-066-070>080-084-089>092-020700-
SOUTH CENTRAL AND SOUTHEAST INDIANA

CITY           SKY/WX    TMP DP  RH WIND       PRES   REMARKS
BLOOMINGTON    CLOUDY    25  21  85 NW6       30.41R WCI  18
6HR MIN TEMP:  25; 6HR MAX TEMP:  31;

SEYMOUR +      MOCLDY    32  25  74 NW9       30.40R WCI  24

$$




USA.gov is the U.S. government's official web portal to all federal, state and local government web resources and services.